Location: Sobotiste
(48.7170°N, 17.4000°E)
Time: 06:01:39
(UTC+02:00)

METEOR M2 - Pass Details

Date: 24 March 2026
Orbit: 817 x 824 km, 98.5° (Epoch: 17 April)

Event Time Altitude Azimuth Distance (km) Brightness Sun altitude
Rises 04:12:53 0° 15° (NNE) 3,373 ? -15.7°
Reaches altitude 10° 04:15:16 10° 17° (NNE) 2,435 ? -15.3°
Maximum altitude 04:20:40 76° 103° (ESE) 852 ? -14.5°
Drops below altitude 10° 04:26:01 10° 190° (S) 2,415 ? -13.7°
Sets 04:28:22 0° 192° (SSW) 3,342 ? -13.3°
